Change the Weather History Date:

Friday, March 8, 2013

  Actual Average Record
Temperature  
Mean Temperature 39 °F -  
Max Temperature 46 °F 48 °F 72 °F (1986)
Min Temperature 32 °F 27 °F 5 °F (1998)
Degree Days  
Heating Degree Days 26    
Moisture  
Dew Point 29 °F    
Average Humidity 73    
Maximum Humidity 87    
Minimum Humidity 50    
Precipitation  
Precipitation 0.00 in - - ()
Sea Level Pressure  
Sea Level Pressure 29.86 in    
Wind  
Wind Speed 5 mph (NNW)    
Max Wind Speed 13 mph    
Max Gust Speed -    
Visibility 12 miles    
Events      
Averages and records for this station are not official NWS values.
T = Trace of Precipitation, MM = Missing Value Source: NWS Daily Summary

Daily Weather History Graph

Daily Weather History Graph

Search for Another Location

Airport or City:

Trip Planner

Search our weather history database for the weather conditions in past years. The results will help you decide how hot, cold, wet, or windy it might be!

Date:

Astronomy

Mar. 08, 2013 Rise Set
Actual Time 6:22 AM MST 6:00 PM MST
Civil Twilight 5:55 AM MST 6:27 PM MST
Nautical Twilight 5:24 AM MST 6:58 PM MST
Astronomical Twilight 4:52 AM MST 7:30 PM MST
Moon 4:08 AM MST (3/8) 2:58 PM MST (3/8)
Length of Visible Light 12h 31m
Length of Day
11h 37m
Waning Crescent, 11% of the Moon is Illuminated
Mar 8
Waning Crescent
Mar 11
New
Mar 19
First Quarter
Mar 27
Full
Apr 2
Last Quarter

Hourly Weather History & Observations

Time (MST) Temp. Windchill Dew Point Humidity Pressure Visibility Wind Dir Wind Speed Gust Speed Precip Events Conditions
12:11 AM 39.2 °F 35.0 °F 26.6 °F 61% 29.97 in 10.0 mi North 5.8 mph - N/A   Clear
12:30 AM 37.4 °F 32.8 °F 26.6 °F 65% 29.97 in 10.0 mi NNW 5.8 mph - N/A   Clear
12:50 AM 37.4 °F 31.4 °F 28.4 °F 70% 29.97 in 10.0 mi NW 8.1 mph - N/A   Clear
1:12 AM 35.6 °F 32.8 °F 28.4 °F 75% 29.96 in 10.0 mi NW 3.5 mph - N/A   Clear
1:31 AM 33.8 °F - 28.4 °F 81% 29.96 in 10.0 mi Calm Calm - N/A   Clear
1:54 AM 35.6 °F - 28.4 °F 75% 29.95 in 10.0 mi Calm Calm - N/A   Clear
2:10 AM 35.6 °F - 28.4 °F 75% 29.95 in 10.0 mi Calm Calm - N/A   Clear
2:30 AM 35.6 °F 30.7 °F 28.4 °F 75% 29.93 in 10.0 mi NW 5.8 mph - N/A   Clear
2:54 AM 35.6 °F 32.8 °F 28.4 °F 75% 29.93 in 10.0 mi North 3.5 mph - N/A   Clear
3:15 AM 35.6 °F - 28.4 °F 75% 29.93 in 10.0 mi Calm Calm - N/A   Clear
3:30 AM 33.8 °F - 26.6 °F 75% 29.94 in 10.0 mi Calm Calm - N/A   Clear
3:55 AM 33.8 °F - 28.4 °F 81% 29.95 in 10.0 mi Calm Calm - N/A   Clear
4:15 AM 35.6 °F 30.7 °F 28.4 °F 75% 29.95 in 10.0 mi NW 5.8 mph - N/A   Clear
4:35 AM 35.6 °F 29.2 °F 28.4 °F 75% 29.95 in 10.0 mi NNW 8.1 mph - N/A   Clear
4:51 AM 35.6 °F 27.1 °F 28.4 °F 75% 29.93 in 10.0 mi NNW 12.7 mph - N/A   Clear
5:48 AM 32.0 °F 22.5 °F 26.6 °F 80% 29.94 in 15.0 mi NNW 12.7 mph - N/A   Mostly Cloudy
6:50 AM 32.0 °F 24.2 °F 26.6 °F 80% 29.95 in 35.0 mi NNW 9.2 mph - N/A   Mostly Cloudy
7:50 AM 32.0 °F 24.2 °F 28.4 °F 87% 29.94 in 40.0 mi NNW 9.2 mph - N/A   Mostly Cloudy
8:46 AM 35.6 °F 31.7 °F 28.4 °F 75% 29.94 in 50.0 mi NW 4.6 mph - N/A   Mostly Cloudy
10:47 AM 39.2 °F 33.6 °F 28.4 °F 65% 29.90 in 40.0 mi NNW 8.1 mph - N/A   Mostly Cloudy
11:50 AM 39.2 °F 35.0 °F 28.4 °F 65% 29.88 in 40.0 mi North 5.8 mph - N/A   Mostly Cloudy
12:50 PM 41.0 °F 37.1 °F 28.4 °F 61% 29.83 in 20.0 mi WNW 5.8 mph - N/A   Mostly Cloudy
1:47 PM 42.8 °F 40.1 °F 28.4 °F 57% 29.79 in 35.0 mi NNE 4.6 mph - N/A   Overcast
3:50 PM 46.4 °F 44.3 °F 28.4 °F 50% 29.76 in 20.0 mi North 4.6 mph - N/A   Mostly Cloudy
4:49 PM 44.6 °F 41.4 °F 30.2 °F 57% 29.75 in 20.0 mi NNE 5.8 mph - N/A   Mostly Cloudy
5:50 PM 41.0 °F 37.1 °F 30.2 °F 65% 29.75 in 15.0 mi NNE 5.8 mph - N/A   Mostly Cloudy
6:50 PM 39.2 °F 34.2 °F 30.2 °F 70% 29.75 in 15.0 mi NNW 6.9 mph - N/A   Mostly Cloudy
7:50 PM 39.2 °F 33.6 °F 30.2 °F 70% 29.75 in 15.0 mi North 8.1 mph - N/A   Mostly Cloudy
8:54 PM 37.4 °F 34.9 °F 30.2 °F 75% 29.74 in 15.0 mi NW 3.5 mph - N/A   Mostly Cloudy
9:53 PM 37.4 °F 34.9 °F 30.2 °F 75% 29.72 in 15.0 mi NW 3.5 mph - N/A   Mostly Cloudy
10:12 PM 35.6 °F - 32.0 °F 87% 29.72 in 10.0 mi Calm Calm - N/A   Scattered Clouds
10:30 PM 33.8 °F - 30.2 °F 87% 29.72 in 10.0 mi Calm Calm - N/A   Scattered Clouds
10:52 PM 35.6 °F 29.9 °F 30.2 °F 81% 29.70 in 10.0 mi NW 6.9 mph - N/A   Clear
11:09 PM 35.6 °F 29.9 °F 30.2 °F 81% 29.69 in 10.0 mi NW 6.9 mph - N/A   Clear
11:35 PM 35.6 °F 31.7 °F 30.2 °F 81% 29.68 in 10.0 mi North 4.6 mph - N/A   Clear
11:50 PM 35.6 °F 29.9 °F 30.2 °F 81% 29.67 in 10.0 mi NNW 6.9 mph - N/A   Clear